Location: Arbon
(43.0005°N, 0.7472°E)
Time: 13:13:18
(UTC+00:00)

Vanguard 1 - Pass Details

Date: 02 December 2020
Orbit: 648 x 3834 km, 34.3° (Epoch: 23 January)

Event Time Altitude Azimuth Distance (km) Brightness Sun altitude
Rises 02:41:47 0° 203° (SSW) 2,973 - -48.1°
Reaches altitude 10° 02:45:01 10° 175° (S) 2,209 - -47.6°
Maximum altitude 02:47:32 14° 144° (SE) 2,135 - -47.1°
Exits shadow 02:50:21 10° 115° (ESE) 2,637 12.6 -46.6°
Drops below altitude 10° 02:50:27 10° 114° (ESE) 2,666 12.7 -46.6°
Sets 02:55:10 0° 91° (E) 4,154 14.0 -45.8°
